Current weather by "City, St" or "zip code"  
 
Advertise Here

Current Conditions: Spokane, Spokane International Airport, WA

Mostly Cloudy


70.0 F

Last Updated on May 30 2020, 1:53 am PDT
Humidity: 53%
Wind Speed: E 11.5 mph
Barometer 29.84 in
Dewpoint: 52.0 F
Visibility: 10.00 mi
Precip: --
Heat Index: NA
Wind Chill: NA
Current conditions at:

Spokane, Spokane International Airport, WA (KGEG)

Lat: 47.62139 Lon: 117.52778

Local Radar Image active severe weather and emergency alerts image image weather storm and storm spotter reports image weather observation monitoring service image
Local
Radar
Active
Alerts
Storm Reports Obs
Monitoring

Sign-up For Email & Text Message Weather Alert Notification Services


Advertise Here

Observation History for Spokane, Spokane International Airport, WA


Time Wind
(mph)
Vis
(mi)
Weather Precip (in) Temperature (F) Relative
Humidity
Wind
Chill
(F)
Heat
Index
(F)
Pressure
Air Dwpt altimeter
(in)
sea level
(mb)
Rmks
1:53 am PDT E 11.5 10.00 Mostly Cloudy -- 70.0 52.0 53% NA NA 29.84 1008.5
12:53 am PDT NE 8.1 10.00 Mostly Cloudy -- 70.0 55.0 59% NA NA 29.85 1008.7
11:53 pm PDT NE 3.5 10.00 Mostly Cloudy -- 72.0 55.9 57% NA NA 29.85 1008.9
10:53 pm PDT N 0.0 10.00 A Few Clouds -- 74.0 55.9 54% NA NA 29.86 1009.3
9:53 pm PDT N 0.0 10.00 Mostly Cloudy -- 75.0 55.0 50% NA NA 29.87 1009.7
8:53 pm PDT N 0.0 10.00 Partly Cloudy -- 81.0 54.0 39% NA 81 29.87 1009.6
7:53 pm PDT SE 3.5 10.00 Partly Cloudy -- 83.0 52.0 34% NA 82 29.87 1009.7
6:53 pm PDT S 3.5 10.00 Partly Cloudy -- 84.0 50.0 31% NA 82 29.88 1010.1
5:53 pm PDT SE 6.9 10.00 Mostly Cloudy -- 85.0 48.9 29% NA 83 29.89 1010.3
4:53 pm PDT N 0.0 10.00 Mostly Cloudy -- 85.0 48.9 29% NA 83 29.90 1010.8
3:53 pm PDT E 4.6 10.00 Partly Cloudy -- 85.0 46.9 27% NA 83 29.91 1011.3
2:53 pm PDT 4.6 10.00 Partly Cloudy -- 84.0 46.9 27% NA 82 29.93 1011.9
1:53 pm PDT N 0.0 10.00 Partly Cloudy -- 83.0 46.0 27% NA 81 29.95 1012.4
12:53 pm PDT 3.5 10.00 Partly Cloudy -- 81.0 46.9 30% NA 80 29.96 1013.0
11:53 am PDT N 0.0 10.00 Partly Cloudy -- 79.0 46.0 31% NA NA 29.98 1013.8
10:53 am PDT NE 4.6 10.00 Partly Cloudy -- 76.0 45.0 33% NA NA 29.99 1014.2
9:53 am PDT NE 6.9 10.00 Partly Cloudy -- 71.0 43.0 36% NA NA 30.00 1014.4
8:53 am PDT NE 6.9 10.00 Partly Cloudy -- 67.0 44.1 44% NA NA 30.01 1014.7
7:53 am PDT NE 10.4 10.00 Mostly Cloudy -- 64.0 42.1 45% NA NA 30.01 1014.7
6:53 am PDT NE 9.2 10.00 Partly Cloudy -- 62.0 41.0 46% 61 NA 29.99 1014.2
5:53 am PDT E 5.8 10.00 Partly Cloudy -- 59.0 42.1 54% 58 NA 30.00 1014.5
4:53 am PDT NE 5.8 10.00 Mostly Cloudy -- 58.0 42.1 56% 57 NA 29.99 1014.3
3:53 am PDT N 4.6 10.00 Mostly Cloudy -- 57.0 44.1 62% 57 NA 29.99 1014.1
2:53 am PDT N 0.0 10.00 Mostly Cloudy -- 60.0 44.1 56% NA NA 29.99 1014.2

Regional Weather Observation


Fairchild Air Force Base, WA (KSKA)

Partly Cloudy
68.0 F

Spokane, Spokane International Airport, WA (KGEG)

Mostly Cloudy
70.0 F

Spokane, Felts Field, WA (KSFF)

Fair
62.0 F

Coeur dAlene Airport - Pappy Boyington Field, ID (KCOE)

Fair
64.0 F

Sandpoint, Sandpoint Airport, ID (KSZT)

Fair
55.0 F

Pullman / Moscow Regional Airport, WA (KPUW)

Fair
67.0 F